Hourly Data Report for January 19, 2017

TORONTO CITY
ONTARIO

43°40'00.000" N
79°24'00.000" W
112.50 m
6158355
71508
XTO

Download Data

Hourly Data (January 2017)
Hourly Data Report for January 19, 2017
TIME
LST
Temp Definition
°C
Dew Point Definition
°C
Rel Hum Definition
%
Precip. Amount Definition
mm

Wind Dir Definition
10's deg

Wind Spd Definition
km/h
Visibility Definition
km
Stn Press Definition
kPa
Hmdx Definition


Wind Chill Definition


Weather Definition


00:00 3.9 1.8 86 0.0 LegendMM LegendMM   100.17     LegendNANA
01:00 4.0 1.6 84 0.0 LegendMM LegendMM   100.19     LegendNANA
02:00 4.1 1.4 83 0.0 LegendMM LegendMM   100.19     LegendNANA
03:00 4.1 1.2 82 0.0 LegendMM LegendMM   100.21     LegendNANA
04:00 3.9 1.0 81 0.0 LegendMM LegendMM   100.20     LegendNANA
05:00 3.5 0.5 81 0.0 LegendMM LegendMM   100.23     LegendNANA
06:00 3.3 0.7 83 0.0 LegendMM LegendMM   100.30     LegendNANA
07:00 2.9 1.1 88 0.0 LegendMM LegendMM   100.35     LegendNANA
08:00 2.8 1.5 91 0.0 LegendMM LegendMM   100.39     LegendNANA
09:00 2.7 1.1 89 0.0 LegendMM LegendMM   100.44     LegendNANA
10:00 3.0 1.0 87 0.0 LegendMM LegendMM   100.48     LegendNANA
11:00 3.1 0.9 85 0.0 LegendMM LegendMM   100.48     LegendNANA
12:00 3.2 0.4 81 0.0 LegendMM LegendMM   100.39     LegendNANA
13:00 3.3 -0.3 77 0.0 LegendMM LegendMM   100.28     LegendNANA
14:00 3.0 0.6 84 0.0 LegendMM LegendMM   100.22     LegendNANA
15:00 3.1 0.5 83 0.0 LegendMM LegendMM   100.19     LegendNANA
16:00 3.0 0.3 82 0.0 LegendMM LegendMM   100.24     LegendNANA
17:00 2.8 0.1 83 0.0 LegendMM LegendMM   100.26     LegendNANA
18:00 2.8 -0.2 81 0.0 LegendMM LegendMM   100.34     LegendNANA
19:00 2.6 -0.2 82 0.0 LegendMM LegendMM   100.30     LegendNANA
20:00 2.5 -0.2 82 0.0 LegendMM LegendMM   100.23     LegendNANA
21:00 2.4 -0.4 82 0.0 LegendMM LegendMM   100.19     LegendNANA
22:00 2.3 -0.2 84 0.0 LegendMM LegendMM   100.17     LegendNANA
23:00 2.3 -0.2 83 0.0 LegendMM LegendMM   100.14     LegendNANA

Notes on Data Quality.

Legend

  • E = Estimated
  • M = Missing
  • NA = Not Available*
  • [empty] = Indicates an unobserved value
Date modified: